Total_Precipitation_Accumulation
1.62 1.66 1.73 1.71 1.71 1.74 1.67 1.61 1.65 1.80 1.83 1.78 1.75 1.77 1.75 1.71 1.75 1.79 1.62 1.75 1.88 1.92 1.93 2.08 2.14 2.25 2.29 2.29 2.41 2.54 2.77 3.00 2.70 2.19 2.08 2.08 2.20 2.19 2.09 1.86 1.64 1.56 1.40
1.64 1.78 1.91 1.97 2.00 1.94 1.74 1.62 1.68 1.76 1.82 1.83 1.81 1.78 1.68 1.70 1.87 1.92 1.82 1.91 1.97 1.93 1.96 2.09 2.00 2.17 2.33 2.31 2.41 2.42 2.52 2.83 2.74 2.48 2.42 2.38 2.36 2.28 2.27 2.09 1.76 1.60 1.52
1.87 2.07 2.28 2.39 2.24 2.05 1.93 1.83 1.85 1.85 1.88 1.95 1.96 1.96 1.93 1.96 1.97 2.03 2.12 2.11 2.02 1.93 1.98 1.98 1.95 2.14 2.15 2.26 2.38 2.35 2.33 2.49 2.66 2.61 2.57 2.65 2.61 2.49 2.40 2.22 2.02 1.95 1.66
1.60 1.90 2.14 2.27 2.13 2.03 2.02 1.89 1.83 1.85 1.92 2.02 2.02 2.14 2.30 2.34 2.33 2.27 2.19 2.14 2.08 2.03 2.01 1.96 1.92 1.95 1.99 2.08 2.20 2.28 2.35 2.48 2.61 2.65 2.69 2.81 2.78 2.81 2.77 2.54 2.41 2.32 1.99
1.42 1.56 1.81 2.08 1.94 1.70 1.66 1.64 1.59 1.68 1.80 2.09 2.21 2.28 2.54 2.68 2.51 2.51 2.44 2.35 2.34 2.18 2.05 1.96 1.83 1.84 1.90 1.92 1.89 2.00 2.14 2.28 2.32 2.41 2.51 2.72 2.78 2.87 2.85 2.70 2.57 2.55 2.36
1.32 1.45 1.63 1.76 1.63 1.47 1.37 1.39 1.43 1.52 1.70 1.87 2.01 2.12 2.17 2.02 2.17 2.19 2.17 2.21 2.25 2.14 2.07 2.01 1.86 1.76 1.73 1.69 1.60 1.62 1.70 1.81 2.00 2.23 2.31 2.51 2.70 2.85 3.03 3.09 2.92 2.74 2.59
1.30 1.34 1.48 1.60 1.61 1.51 1.34 1.34 1.41 1.51 1.65 1.74 1.78 1.84 1.81 1.88 1.90 1.69 1.63 1.61 1.78 1.89 1.96 1.95 1.72 1.57 1.64 1.56 1.59 1.55 1.55 1.66 1.77 1.99 2.17 2.26 2.49 2.69 2.93 3.07 3.06 2.94 2.74
1.31 1.40 1.58 1.75 1.76 1.69 1.62 1.58 1.66 1.74 1.72 1.71 1.75 1.80 1.88 1.87 1.76 1.53 1.50 1.46 1.60 1.72 1.79 1.82 1.79 1.71 1.71 1.74 1.65 1.54 1.46 1.53 1.62 1.59 1.63 1.79 2.06 2.42 2.60 2.65 2.80 2.83 2.69
1.52 1.57 1.65 1.80 1.86 1.87 1.96 2.01 2.07 2.06 1.93 1.88 1.95 1.98 1.96 1.89 1.76 1.54 1.53 1.47 1.59 1.63 1.64 1.66 1.67 1.63 1.71 1.59 1.48 1.45 1.44 1.48 1.46 1.43 1.39 1.43 1.57 1.80 2.13 2.29 2.39 2.36 2.26
1.61 1.76 1.80 1.96 2.08 2.07 2.17 2.31 2.42 2.45 2.35 2.37 2.26 2.10 1.98 1.88 1.85 1.55 1.45 1.40 1.49 1.57 1.65 1.61 1.55 1.43 1.41 1.35 1.32 1.43 1.41 1.40 1.43 1.37 1.28 1.21 1.17 1.32 1.64 1.82 1.91 1.95 1.85
1.76 1.83 1.91 2.11 2.29 2.44 2.62 2.76 2.76 2.72 2.74 2.66 2.40 2.26 2.22 2.16 1.98 1.54 1.36 1.30 1.38 1.55 1.61 1.59 1.49 1.42 1.24 1.20 1.19 1.22 1.25 1.22 1.29 1.33 1.30 1.27 1.28 1.28 1.32 1.46 1.66 1.78 1.75
1.88 2.00 2.16 2.27 2.33 2.45 2.77 2.87 2.86 2.80 2.67 2.49 2.33 2.13 2.02 1.98 1.81 1.52 1.33 1.34 1.45 1.53 1.56 1.52 1.51 1.39 1.17 1.10 1.03 1.03 1.05 0.98 1.01 1.13 1.12 1.08 1.09 1.09 1.13 1.27 1.47 1.62 1.70
1.89 2.08 2.26 2.40 2.58 2.76 2.88 2.81 2.71 2.65 2.55 2.39 2.25 2.05 2.02 2.10 2.02 1.68 1.47 1.45 1.47 1.40 1.40 1.45 1.38 1.25 1.05 0.90 0.89 0.87 0.81 0.79 0.88 0.99 1.00 0.94 0.92 0.96 1.06 1.21 1.36 1.51 1.55
1.75 1.90 2.06 2.14 2.21 2.34 2.52 2.45 2.31 2.28 2.31 2.27 2.22 2.12 2.07 2.08 2.04 1.78 1.55 1.52 1.49 1.43 1.37 1.33 1.20 1.13 0.99 0.89 0.89 0.82 0.75 0.82 0.91 0.94 0.99 1.00 0.97 0.99 1.02 1.08 1.19 1.31 1.39
1.58 1.66 1.72 1.75 1.84 1.95 2.03 2.10 2.05 2.03 1.98 1.98 1.96 1.94 1.84 1.79 1.84 1.68 1.51 1.56 1.61 1.62 1.54 1.46 1.34 1.23 1.09 0.99 0.98 1.00 1.01 1.07 1.05 1.03 1.09 1.14 1.11 1.04 1.01 1.05 1.18 1.22 1.19
1.63 1.59 1.57 1.60 1.65 1.66 1.74 1.75 1.74 1.62 1.51 1.41 1.35 1.32 1.29 1.33 1.43 1.35 1.27 1.34 1.42 1.49 1.42 1.35 1.31 1.24 1.15 1.14 1.18 1.20 1.18 1.19 1.16 1.17 1.19 1.22 1.22 1.13 1.04 1.04 1.15 1.22 1.17
1.75 1.64 1.57 1.50 1.48 1.50 1.55 1.62 1.63 1.50 1.31 1.16 1.06 0.99 0.95 1.01 1.09 1.09 1.10 1.18 1.30 1.38 1.34 1.35 1.32 1.30 1.23 1.21 1.23 1.24 1.19 1.19 1.23 1.24 1.25 1.26 1.31 1.31 1.27 1.21 1.20 1.27 1.26
1.86 1.75 1.59 1.48 1.42 1.42 1.45 1.49 1.56 1.62 1.51 1.32 1.10 0.90 0.82 0.81 0.85 0.94 1.04 1.14 1.25 1.28 1.25 1.30 1.30 1.28 1.26 1.23 1.21 1.22 1.22 1.24 1.24 1.23 1.27 1.30 1.37 1.39 1.42 1.36 1.29 1.27 1.30
1.64 1.57 1.47 1.41 1.41 1.39 1.41 1.41 1.39 1.44 1.43 1.38 1.23 1.05 0.92 0.83 0.82 0.89 0.92 0.96 1.14 1.21 1.22 1.22 1.19 1.14 1.12 1.13 1.12 1.11 1.11 1.12 1.15 1.22 1.22 1.23 1.31 1.31 1.28 1.26 1.27 1.28 1.30
1.61 1.57 1.44 1.39 1.43 1.43 1.41 1.41 1.38 1.43 1.43 1.41 1.30 1.12 0.97 0.85 0.81 0.85 0.87 0.99 1.16 1.19 1.16 1.13 1.12 1.09 1.09 1.09 1.10 1.09 1.08 1.09 1.14 1.23 1.25 1.26 1.29 1.28 1.23 1.22 1.27 1.30 1.27
1.57 1.52 1.40 1.34 1.35 1.42 1.43 1.40 1.34 1.35 1.34 1.37 1.27 1.07 0.95 0.83 0.84 0.89 0.96 1.07 1.16 1.12 1.10 1.07 1.05 1.01 1.00 1.00 1.02 1.04 1.08 1.13 1.16 1.21 1.26 1.29 1.32 1.31 1.25 1.26 1.30 1.34 1.36
1.56 1.49 1.34 1.18 1.16 1.22 1.27 1.29 1.28 1.25 1.25 1.28 1.20 1.00 0.89 0.77 0.83 0.92 0.97 1.04 1.08 1.07 1.05 1.03 0.98 0.90 0.90 0.93 0.97 1.04 1.08 1.11 1.16 1.23 1.26 1.28 1.33 1.30 1.30 1.33 1.33 1.37 1.44
1.48 1.38 1.24 1.06 1.02 1.11 1.17 1.24 1.24 1.18 1.18 1.17 1.07 0.94 0.88 0.88 0.89 0.94 1.01 1.03 1.05 1.07 1.04 0.99 0.93 0.88 0.88 0.90 0.93 0.99 1.05 1.09 1.08 1.11 1.16 1.21 1.27 1.30 1.34 1.35 1.33 1.37 1.41
1.35 1.31 1.25 1.06 1.02 1.15 1.24 1.31 1.25 1.13 1.09 1.06 0.97 0.95 0.94 0.96 0.95 0.94 0.96 0.99 1.01 0.99 0.98 0.96 0.89 0.84 0.84 0.87 0.90 0.91 0.94 0.95 0.95 1.01 1.05 1.12 1.19 1.24 1.29 1.31 1.31 1.33 1.38
1.28 1.28 1.31 1.19 1.09 1.14 1.19 1.22 1.18 1.09 1.04 0.98 0.93 0.95 0.95 0.92 0.93 0.95 0.97 1.00 0.98 0.93 0.89 0.86 0.89 0.88 0.87 0.87 0.88 0.89 0.91 0.84 0.80 0.81 0.85 0.95 1.01 1.11 1.16 1.15 1.20 1.26 1.32
1.19 1.22 1.29 1.25 1.19 1.21 1.26 1.26 1.23 1.15 1.09 1.01 0.95 0.93 0.95 0.96 0.96 0.96 0.95 0.94 0.93 0.92 0.90 0.88 0.85 0.82 0.82 0.79 0.75 0.75 0.72 0.64 0.62 0.68 0.72 0.78 0.87 0.96 0.99 0.99 0.99 1.07 1.16